Hourly Data Report for October 04, 2017

All times are specified in Local Standard Time (LST). Add 1 hour to adjust for Daylight Saving Time where and when it is observed.

GRAND RAPIDS (AUT)
MANITOBA

53°11'11.064" N
99°16'04.098" W
222.50 m
5031A10
71858
WJD

Download Data

Hourly Data (October 2017)
Hourly Data Report for October 4, 2017
Temp Definition
°C
Dew Point Temp Definition
°C
Rel Hum Definition
%
Wind Dir Definition
10's deg

Wind Spd Definition
km/h
Visibility Definition
km
Stn Press Definition
kPa
Hmdx Definition


Wind Chill Definition


Weather Definition


TIME
00:00 4.9 4.2 95 23 5   99.11     LegendNANA
01:00 5.6 4.9 95 26 9   99.06     LegendNANA
02:00 6.1 5.0 92 25 13   99.04     LegendNANA
03:00 5.5 4.5 93 23 10   98.95     LegendNANA
04:00 5.5 4.3 93 24 16   98.85     LegendNANA
05:00 5.7 4.3 90 24 17   98.78     LegendNANA
06:00 5.7 4.1 90 24 16   98.73     LegendNANA
07:00 5.7 4.1 89 25 11   98.71     LegendNANA
08:00 6.4 3.4 81 28 14   98.73     LegendNANA
09:00 7.9 3.0 71 28 14   98.74     LegendNANA
10:00 8.9 2.5 64 30 19   98.75     LegendNANA
11:00 8.9 2.7 65 30 16   98.74     LegendNANA
12:00 10.7 3.4 60 29 18   98.77     LegendNANA
13:00 11.4 3.1 57 29 15   98.80     LegendNANA
14:00 10.8 3.4 60 29 14   98.87     LegendNANA
15:00 11.0 4.0 62 29 15   98.88     LegendNANA
16:00 9.8 3.2 63 31 14   98.94     LegendNANA
17:00 9.4 2.8 63 31 11   98.97     LegendNANA
18:00 7.8 2.5 69 32 8   99.03     LegendNANA
19:00 5.1 2.2 82 30 4   99.07     LegendNANA
20:00 3.2 1.5 89 31 6   99.12     LegendNANA
21:00 1.2 -0.1 91 30 5   99.13     LegendNANA
22:00 0.6 -0.2 94 30 5   99.15     LegendNANA
23:00 2.4 1.7 95 30 5   99.19     LegendNANA

Notes on Data Quality.

Legend

  • E = Estimated
  • M = Missing
  • NA = Not Available
  • ‡ = Partner data that is not subject to review by the National Climate Archives
Date modified: